Location: Saint-Restitut
(44.3351°N, 4.7915°E)
Time: 11:59:25
(UTC+00:00)

Cosmos 2219 Rocket - Pass Details

Date: 03 February 2023
Orbit: 826 x 847 km, 71.0° (Epoch: 19 March)

Event Time Altitude Azimuth Distance (km) Brightness Sun altitude
Rises 19:46:04 0° 222° (SW) 3,353 5.7 -31.2°
Reaches altitude 10° 19:48:35 10° 228° (SW) 2,425 5.0 -31.6°
Maximum altitude 19:53:55 46° 302° (WNW) 1,098 3.0 -32.6°
Enters shadow 19:54:23 45° 316° (NW) 1,114 3.0 -32.7°
